[[{"header":{"parameterUnit":"m.s-1","parameterCategory":1,"la1":30.2991,"la2":30.254,"lo1":-89.0895,"lo2":-89.0444,"dy":0.0017,"dx":0.0017,"nx":28,"ny":28,"refTime":"2025-09-12T03:00:00:Z","depth":0,"parameterNumber":2,"parameterNumberName":"U-component_of_WINDS"},"data":[0,0,0,0,0,0,0,0,0,0,0,0,0,0,0,0,0,0,0,0,0,0,0,0,0,0,0,0,0,0,0,0,0,0,0,0,0,0,0,0,0,0,0,0,0,0,0,0,0,0,0,0,0,0,0,0,0,0,1.4484,1.4484,0,1.4466,1.4466,1.4466,1.4388,1.4386,1.4384,1.4382,1.4365,1.4366,1.4367,0,0,0,0,0,0,0,0,0,0,0,0,0,1.4451,1.4452,1.4484,1.4484,1.4483,1.4466,1.4466,1.4466,1.4388,1.4386,1.4383,1.4381,1.4364,1.4366,1.4367,0,0,0,0,0,0,0,0,0,0,0,0,0,1.4453,1.4452,1.4484,1.4442,1.4439,1.4466,1.4466,1.4466,1.4388,1.4386,1.4383,1.438,1.4364,1.4366,1.4367,1.4434,0,0,1.4373,1.4374,0,0,0,0,0,0,0,0,1.4453,1.4454,1.4449,1.4445,1.4441,1.4426,1.4448,1.4455,1.4389,1.4407,1.4382,1.4379,1.4387,1.4387,1.439,1.4433,1.4432,1.4373,1.4374,1.4375,1.4376,0,0,0,0,0,0,0,1.4453,1.4454,1.4477,1.4449,1.4444,1.4425,1.4422,1.4449,1.4413,1.4406,1.44,1.4399,1.4385,1.4388,1.4389,1.4432,1.4373,1.4375,1.4376,1.4377,1.453,1.4533,0,0,0,0,0,0,1.4458,1.4455,1.4477,1.4476,1.444,1.4428,1.4425,1.4434,1.4413,1.4407,1.4401,1.4395,1.4387,1.4387,1.4388,1.4465,1.4375,1.4377,1.4378,1.4527,1.4531,1.4534,0,0,0,0,0,0,1.4458,1.4461,1.4478,1.4464,1.4465,1.4431,1.4442,1.4435,1.4438,1.4409,1.4403,1.4411,1.4384,1.4385,1.4423,1.4464,1.4378,1.438,1.4524,1.4528,1.4533,1.462,0,0,0,0,0,0,1.4457,1.4461,1.4486,1.4465,1.4466,1.4514,1.4445,1.4437,1.4442,1.4434,1.4417,1.4412,1.4382,1.4421,1.4425,1.4465,1.4381,1.452,1.4526,1.4531,1.4614,1.4627,1.4639,0,0,0,0,0,1.4456,1.4511,1.4488,1.4491,1.4496,1.4516,1.4517,1.4482,1.4445,1.447,1.4451,1.4412,1.4459,1.4426,1.443,1.447,1.4517,1.4524,1.4531,1.4608,1.4625,1.4638,0,0,0,0,0,0,1.4537,1.4508,1.4481,1.4531,1.4527,1.4503,1.4533,1.45,1.4506,1.4498,1.4455,1.4452,1.4496,1.4487,1.4451,1.4534,1.4481,1.4489,1.4539,1.4554,1.4567,1.4568,1.4383,0,0,0,0,0,1.4561,1.458,1.4553,1.4599,1.4599,1.4567,1.4574,1.4548,1.4541,1.4539,1.4523,1.4519,1.4533,1.4543,1.4554,1.4612,1.4608,1.4642,1.4654,1.4665,1.4672,1.4703,1.4719,1.4556,1.4556,1.4556,0,0,1.461,1.4596,1.4611,1.4615,1.4609,1.463,1.4566,1.459,1.4605,1.4543,1.4578,1.4567,1.4559,1.4608,1.4628,1.4601,1.4716,1.4673,1.4682,1.4684,1.4712,1.4727,1.4741,1.456,1.456,1.4559,0,0,1.4711,1.4702,1.474,1.4735,1.4726,1.4705,1.4714,1.4696,1.4686,1.472,1.4674,1.4692,1.4716,1.4713,1.4715,1.4815,1.478,1.482,1.4886,1.4917,1.493,1.4941,1.4978,1.4991,1.4827,1.4828,1.4828,0,1.4773,1.4802,1.4764,1.4792,1.4796,1.474,1.4779,1.4776,1.4772,1.4776,1.4746,1.4776,1.4767,1.4814,1.4839,1.4842,1.4852,1.4822,1.4931,1.4942,1.4951,1.4986,1.5,1.4833,1.4832,1.4832,1.4831,0,1.488,1.4901,1.4933,1.4931,1.4938,1.4971,1.4938,1.4951,1.4924,1.4906,1.4942,1.493,1.4938,1.4947,1.4921,1.4991,1.4975,1.4938,1.4885,1.4973,1.5005,1.5018,1.484,1.4838,1.4837,1.4835,0,0,1.503,1.5007,1.5019,1.5018,1.5005,1.5021,1.5052,1.506,1.5072,1.5071,1.5097,1.5119,1.5085,1.5087,1.506,1.5087,1.5169,1.5047,1.5047,1.5072,1.5248,1.5276,1.5292,1.5146,1.5148,1.515,1.5249,0,1.5127,1.5179,1.5146,1.5203,1.5223,1.5171,1.5199,1.5194,1.5178,1.5193,1.5175,1.5192,1.5146,1.5147,1.5172,1.5154,1.5204,1.5147,1.517,1.5171,1.5174,1.5309,1.5338,1.5432,1.5261,1.5263,1.5265,0,1.5246,1.5251,1.5311,1.5295,1.5302,1.5327,1.5332,1.5347,1.5341,1.5328,1.5331,1.5297,1.5328,1.5275,1.5316,1.5278,1.5285,1.5278,1.5281,1.5282,1.5224,1.5314,1.5461,1.5476,1.5284,1.5282,1.5281,0,1.5351,1.5373,1.5411,1.5412,1.5394,1.5413,1.5407,1.5398,1.5405,1.541,1.5414,1.5423,1.5427,1.5435,1.5405,1.5368,1.5451,1.5395,1.5441,1.5442,1.5461,1.546,1.5612,1.5465,1.5465,1.5465,1.5464,0,1.5463,1.5502,1.5459,1.5483,1.5525,1.5487,1.553,1.5518,1.5511,1.5532,1.5487,1.5508,1.5467,1.5484,1.5461,1.55,1.5502,1.5492,1.5486,1.5497,1.5498,1.5501,1.5494,1.5468,1.5468,1.5467,1.5466,0,1.5588,1.556,1.5599,1.5579,1.5576,1.5608,1.5591,1.5613,1.5594,1.5622,1.5626,1.5597,1.5615,1.5585,1.5599,1.5584,1.5638,1.5621,1.564,1.5636,1.5684,1.568,1.5844,1.5864,1.5703,1.5705,1.5706,0,1.5661,1.569,1.5673,1.5685,1.5681,1.5699,1.5706,1.567,1.568,1.5676,1.5699,1.5713,1.5722,1.5753,1.5733,1.5744,1.5728,1.5784,1.5729,1.574,1.573,1.5729,1.5732,1.5796,1.5798,1.5799,1.5801,0,1.5794,1.578,1.5792,1.58,1.5811,1.5815,1.5817,1.5828,1.579,1.5803,1.5821,1.5829,1.5843,1.5858,1.5865,1.5858,1.5824,1.5818,1.583,1.5841,1.5852,1.5848,1.5672,1.5815,1.5813,1.5812,1.5811,1.5811,1.5896,1.5919,1.5912,1.5928,1.5925,1.5928,1.5948,1.5932,1.5946,1.5956,1.5934,1.5957,1.5951,1.5956,1.5954,1.5972,1.5947,1.5964,1.5968,1.5973,1.5981,1.5849,1.5973,1.5972,1.5972,1.5972,1.5971,0,1.6028,1.6021,1.6036,1.6039,1.6052,1.6018,1.6019,1.6032,1.6053,1.605,1.6061,1.6082,1.6097,1.6079,1.609,1.6108,1.6093,1.6113,1.6111,1.6111,1.6002,1.5991,1.6125,1.6125,1.6125,1.6125,1.6125,1.6125,1.6098,1.6136,1.6121,1.6159,1.6151,1.6174,1.6177,1.618,1.6178,1.6204,1.6216,1.6204,1.6196,1.6206,1.6218,1.6213,1.622,1.6245,1.6234,1.6133,1.6118,1.6104,1.6094,1.6247,1.6247,1.6341,1.6342,1.6343]},{"header":{"parameterUnit":"m.s-1","parameterCategory":1,"la1":30.2991,"la2":30.254,"lo1":-89.0895,"lo2":-89.0444,"dy":0.0017,"dx":0.0017,"nx":28,"ny":28,"refTime":"2025-09-12T03:00:00:Z","depth":0,"parameterNumber":3,"parameterNumberName":"V-component_of_WINDS"},"data":[0,0,0,0,0,0,0,0,0,0,0,0,0,0,0,0,0,0,0,0,0,0,0,0,0,0,0,0,0,0,0,0,0,0,0,0,0,0,0,0,0,0,0,0,0,0,0,0,0,0,0,0,0,0,0,0,0,0,-1.3025,-1.3026,0,-1.3143,-1.3144,-1.3146,-1.3209,-1.3209,-1.3209,-1.3209,-1.333,-1.3333,-1.3336,0,0,0,0,0,0,0,0,0,0,0,0,0,-1.2854,-1.2857,-1.3025,-1.3026,-1.3028,-1.3143,-1.3144,-1.3146,-1.3209,-1.3209,-1.3209,-1.3209,-1.3329,-1.3333,-1.3337,0,0,0,0,0,0,0,0,0,0,0,0,0,-1.2946,-1.2858,-1.3024,-1.3073,-1.3078,-1.3142,-1.3144,-1.3146,-1.3208,-1.3209,-1.3209,-1.3209,-1.3328,-1.3333,-1.3337,-1.3363,0,0,-1.3352,-1.3354,0,0,0,0,0,0,0,0,-1.2941,-1.2952,-1.3064,-1.3069,-1.3076,-1.3161,-1.3129,-1.3219,-1.3208,-1.3159,-1.3209,-1.3209,-1.3274,-1.3283,-1.3305,-1.3368,-1.3373,-1.3352,-1.3355,-1.3357,-1.3358,0,0,0,0,0,0,0,-1.2934,-1.2947,-1.3071,-1.3066,-1.3073,-1.3089,-1.3102,-1.3146,-1.3214,-1.3163,-1.3168,-1.3181,-1.3277,-1.33,-1.3308,-1.3375,-1.3352,-1.3356,-1.3359,-1.3361,-1.3467,-1.3467,0,0,0,0,0,0,-1.292,-1.2942,-1.3068,-1.3075,-1.3007,-1.3092,-1.3107,-1.3134,-1.3214,-1.3226,-1.3181,-1.3184,-1.3292,-1.3303,-1.3313,-1.3349,-1.3357,-1.3361,-1.3364,-1.3467,-1.3467,-1.3467,0,0,0,0,0,0,-1.2916,-1.2931,-1.3063,-1.301,-1.3028,-1.3094,-1.3124,-1.3136,-1.3159,-1.3227,-1.324,-1.3192,-1.3293,-1.3306,-1.335,-1.3354,-1.3363,-1.3368,-1.3467,-1.3467,-1.3467,-1.3419,0,0,0,0,0,0,-1.2911,-1.2929,-1.2939,-1.3009,-1.303,-1.3098,-1.3125,-1.3138,-1.3167,-1.3172,-1.3241,-1.3252,-1.3294,-1.3343,-1.3355,-1.336,-1.3371,-1.3467,-1.3467,-1.3467,-1.3421,-1.3418,-1.3415,0,0,0,0,0,-1.2904,-1.292,-1.2939,-1.2954,-1.3044,-1.3098,-1.311,-1.3157,-1.3167,-1.3178,-1.3222,-1.325,-1.3351,-1.3347,-1.3361,-1.3368,-1.3467,-1.3467,-1.3467,-1.3422,-1.3418,-1.3415,0,0,0,0,0,0,-1.2848,-1.293,-1.2952,-1.2991,-1.3037,-1.3108,-1.3123,-1.3151,-1.3195,-1.3198,-1.3255,-1.327,-1.3309,-1.3343,-1.3336,-1.3397,-1.3412,-1.3415,-1.3373,-1.337,-1.3367,-1.3358,-1.3375,0,0,0,0,0,-1.284,-1.2876,-1.2947,-1.2974,-1.2996,-1.3056,-1.3081,-1.3113,-1.3163,-1.3183,-1.323,-1.3278,-1.3321,-1.3347,-1.339,-1.3426,-1.3443,-1.3438,-1.3435,-1.3432,-1.3434,-1.3457,-1.3456,-1.3467,-1.3467,-1.3467,0,0,-1.2824,-1.2874,-1.2893,-1.2964,-1.3004,-1.3041,-1.3072,-1.3109,-1.3137,-1.3189,-1.3233,-1.327,-1.3327,-1.3367,-1.3387,-1.3396,-1.3435,-1.3432,-1.343,-1.3433,-1.3457,-1.3456,-1.3455,-1.3467,-1.3467,-1.3467,0,0,-1.2814,-1.2855,-1.2883,-1.2922,-1.2981,-1.3021,-1.3027,-1.3095,-1.3121,-1.3167,-1.3207,-1.3241,-1.3313,-1.3352,-1.3382,-1.3388,-1.3416,-1.34,-1.3385,-1.3406,-1.3405,-1.3405,-1.3407,-1.3408,-1.3402,-1.3402,-1.3401,0,-1.2786,-1.2843,-1.2894,-1.2929,-1.296,-1.3009,-1.3038,-1.3073,-1.3144,-1.3164,-1.3173,-1.3266,-1.3307,-1.3358,-1.3359,-1.3381,-1.3391,-1.3392,-1.3401,-1.3401,-1.3402,-1.3405,-1.3406,-1.3399,-1.34,-1.34,-1.34,0,-1.2807,-1.2846,-1.2861,-1.2928,-1.2961,-1.2993,-1.3049,-1.3075,-1.3106,-1.3144,-1.3191,-1.3243,-1.3297,-1.3312,-1.3341,-1.3367,-1.3371,-1.339,-1.3407,-1.3397,-1.3401,-1.3403,-1.3396,-1.3397,-1.3397,-1.3398,0,0,-1.2763,-1.2858,-1.2863,-1.2895,-1.2964,-1.2996,-1.3031,-1.3084,-1.3107,-1.3154,-1.3185,-1.3245,-1.3264,-1.3297,-1.3332,-1.335,-1.3353,-1.3368,-1.337,-1.3363,-1.3385,-1.3371,-1.3371,-1.3372,-1.3373,-1.3373,-1.3381,0,-1.2763,-1.2827,-1.2874,-1.2921,-1.2958,-1.3006,-1.3036,-1.3083,-1.312,-1.3157,-1.3199,-1.3241,-1.3262,-1.3282,-1.3303,-1.3348,-1.3358,-1.3348,-1.3402,-1.3403,-1.3386,-1.3373,-1.3358,-1.3362,-1.3383,-1.3383,-1.3383,0,-1.2771,-1.2817,-1.2867,-1.2934,-1.2951,-1.2977,-1.3031,-1.3066,-1.312,-1.3146,-1.3184,-1.322,-1.326,-1.3273,-1.3329,-1.3321,-1.3346,-1.3372,-1.3373,-1.338,-1.3392,-1.338,-1.3365,-1.3366,-1.3386,-1.3386,-1.3386,0,-1.2734,-1.2809,-1.2849,-1.2874,-1.2953,-1.2971,-1.3004,-1.3059,-1.3088,-1.3136,-1.3156,-1.3207,-1.3235,-1.3274,-1.3323,-1.3328,-1.3374,-1.3391,-1.3397,-1.3396,-1.3405,-1.3404,-1.3394,-1.3421,-1.3421,-1.3421,-1.3421,0,-1.2729,-1.2758,-1.2833,-1.2858,-1.2892,-1.2946,-1.2979,-1.3017,-1.3065,-1.3098,-1.3143,-1.3173,-1.3237,-1.3275,-1.3314,-1.3355,-1.3367,-1.339,-1.34,-1.3386,-1.3383,-1.3403,-1.3404,-1.3421,-1.3421,-1.3421,-1.3421,0,-1.2693,-1.2745,-1.2792,-1.2863,-1.2882,-1.2904,-1.2965,-1.2991,-1.3032,-1.3073,-1.3086,-1.315,-1.3198,-1.3251,-1.3316,-1.3342,-1.3381,-1.3395,-1.3362,-1.3368,-1.3372,-1.3371,-1.3374,-1.3378,-1.3402,-1.3401,-1.3401,0,-1.2686,-1.271,-1.2784,-1.2809,-1.2842,-1.2882,-1.2913,-1.2968,-1.2998,-1.3063,-1.3081,-1.3132,-1.3176,-1.325,-1.3302,-1.3353,-1.3369,-1.3367,-1.3376,-1.3362,-1.3369,-1.3367,-1.337,-1.3363,-1.3363,-1.3362,-1.3362,0,-1.2668,-1.2693,-1.2735,-1.2787,-1.2823,-1.2866,-1.2912,-1.293,-1.2994,-1.3026,-1.3076,-1.3109,-1.3177,-1.3227,-1.3284,-1.332,-1.3352,-1.3359,-1.3363,-1.3349,-1.3329,-1.334,-1.3354,-1.3358,-1.3359,-1.3359,-1.3359,-1.3359,-1.2647,-1.267,-1.2727,-1.2773,-1.2813,-1.2854,-1.2883,-1.2927,-1.2969,-1.3028,-1.3058,-1.3107,-1.3163,-1.3243,-1.3278,-1.3317,-1.3328,-1.3334,-1.3335,-1.3336,-1.3332,-1.3323,-1.3328,-1.3328,-1.3328,-1.3329,-1.3329,0,-1.2632,-1.267,-1.2712,-1.2775,-1.2811,-1.2838,-1.289,-1.2919,-1.2962,-1.3011,-1.3053,-1.3111,-1.316,-1.3217,-1.327,-1.3291,-1.3307,-1.3303,-1.3302,-1.331,-1.332,-1.3311,-1.329,-1.329,-1.329,-1.329,-1.329,-1.329,-1.2628,-1.2669,-1.2701,-1.2763,-1.2802,-1.285,-1.2878,-1.2917,-1.2956,-1.3018,-1.306,-1.3096,-1.3149,-1.3207,-1.3254,-1.3269,-1.3287,-1.3279,-1.3299,-1.3306,-1.3309,-1.3313,-1.3305,-1.3282,-1.3282,-1.3286,-1.3286,-1.3286]}]]